Location: Mesmont
(49.6149°N, 4.4012°E)
Time: 07:59:12
(UTC+00:00)

Daily predictions for brighter satellites

Satellite Brightness Start Highest point End
(mag) Time Altitude Azimuth Time Altitude Azimuth Time Altitude Azimuth
ATLAS 3B R/B 3.2 19:53:25 10° NW 20:01:18 80° NE 20:09:07 10° SE
BREEZE-M DEB (TANK) 4.2 19:59:25 10° SSW 20:02:41 34° SE 20:09:46 10° E
Aureole 3 Rocket 3.7 20:02:46 10° N 20:06:03 34° ENE 20:10:13 10° SE
Cosmos 1980 3.9 20:01:00 10° SSW 20:06:39 79° WNW 20:12:21 10° NNE
Cosmos 923 Rocket 4.2 20:02:26 10° S 20:07:34 53° ESE 20:12:45 10° NNE
USA 306 3.8 20:04:15 10° WNW 20:07:46 42° N 20:11:29 10° ENE
SPOT 5 2.8 20:03:37 10° SSE 20:08:14 64° ENE 20:12:40 10° N
Cosmos 1464 Rocket 4.1 20:05:44 10° N 20:12:06 85° W 20:18:21 10° S
Landsat 4 4.5 20:09:07 10° SE 20:12:16 33° ENE 20:15:27 10° N
Meteor 2-2 Rocket 4.4 20:06:46 10° S 20:12:48 79° E 20:18:50 10° NNE
ARGOS Delta rocket 4.4 20:10:38 10° SE 20:15:31 46° ENE 20:20:11 10° N
Okean O Rocket 3.0 20:12:52 10° SSW 20:17:01 39° W 20:21:12 10° NNW
USA 234 4.3 20:12:32 10° ENE 20:18:45 47° N 20:24:57 10° WNW
Terra 2.3 20:14:20 10° SE 20:18:48 45° ENE 20:23:18 10° N
Cosmos 1656 Rocket 4.0 20:16:44 10° NNW 20:22:06 56° ENE 20:27:23 11° SE
Cosmos 1371 Rocket 4.2 20:17:25 10° NNW 20:22:45 66° ENE 20:28:03 10° SSE
ERS-1 Rocket 3.2 20:19:22 10° SSE 20:24:17 61° ENE 20:29:16 10° N
ATLAS 2AS CENTAUR R/B 3.1 20:18:25 10° SW 20:25:49 78° NW 20:32:56 10° NE
SPOT 3 Rocket 4.0 20:24:09 10° SE 20:29:03 47° ENE 20:33:58 10° N
USA 59 Rocket 2.4 20:28:13 10° N 20:29:51 13° NNE 20:31:38 10° NE
Cosmos 1782 3.5 20:26:19 10° SSW 20:30:02 52° WNW 20:33:48 10° N
IRS-1A Rocket 4.3 20:26:07 10° SSE 20:31:48 88° ENE 20:37:24 10° NNW
Meteor 1-26 Rocket 4.4 20:27:34 10° S 20:33:35 71° E 20:39:35 10° NNE
USA 281 3.6 20:27:33 10° SE 20:33:56 57° NE 20:40:22 10° NNW
Cosmos 1943 Rocket 3.4 20:28:57 10° NW 20:34:10 39° WSW 20:39:20 10° S
Cosmos 1420 Rocket 4.1 20:29:57 10° NNW 20:35:18 87° WSW 20:40:30 11° SSE
Cosmos 1743 2.9 20:34:57 10° N 20:38:30 50° ENE 20:41:25 14° SSE
Cosmos 2278 Rocket 4.2 20:34:24 10° NW 20:38:41 22° WSW 20:42:58 10° SSW
ISS -3.3 20:36:25 10° WNW 20:39:43 60° N 20:43:02 10° E
NOSS 3-1 (A) 4.3 20:32:37 10° NW 20:39:50 67° SW 20:48:11 11° SSE
Cosmos 972 4.5 20:35:37 10° SSW 20:40:30 82° WNW 20:45:30 10° NNE
USA 245 1.8 20:42:39 17° SSE 20:44:17 86° ENE 20:46:31 10° NNW
Cosmos 2279 Rocket 4.5 20:39:54 10° N 20:45:51 46° ENE 20:50:54 14° SE
SL-24 R/B - RUBIN 2 4.5 20:40:08 10° SSW 20:46:15 70° SE 20:52:54 10° NE
Cosmos 2297 3.8 20:40:39 10° NNW 20:46:27 84° ENE 20:51:24 14° SSE
Cosmos 1634 Rocket 4.1 20:40:37 10° N 20:46:55 68° ENE 20:52:38 12° SSE
Cosmos 2112 Rocket 4.0 20:44:38 10° SSW 20:49:56 74° ESE 20:55:15 10° NNE
USA 290 3.3 20:47:42 10° NW 20:50:45 38° WSW 20:53:34 11° S
Cosmos 1766 Rocket 3.6 20:47:10 10° N 20:51:38 81° E 20:55:32 13° SSE
Okean-O 4.2 20:47:55 10° SSW 20:51:53 33° W 20:55:53 10° NNW
USA 229 DEB 4.1 20:47:27 10° NW 20:54:48 77° NE 21:01:46 15° SE
USA 229 4.1 20:47:33 10° NW 20:54:54 77° NE 21:01:53 14° SE
Cosmos 2034 Rocket 4.5 20:49:43 10° NNW 20:55:49 61° W 21:01:57 10° S
Cosmos 1726 2.8 20:54:10 10° N 20:57:01 31° ENE 20:58:35 19° ESE
Spot 2 Rocket 3.5 20:54:06 13° SSE 20:58:37 90° N 21:03:41 10° NNW
Cosmos 1680 Rocket 3.6 20:54:54 10° SSW 21:00:12 81° WNW 21:05:31 10° NNE
Meteor 2-6 Rocket 4.2 20:58:44 10° S 21:04:18 64° E 21:09:45 10° NNE
USA 32 4.0 21:01:30 10° S 21:06:43 86° E 21:11:59 10° N
Tsikada Rocket 4.1 21:03:01 10° SSW 21:09:12 81° W 21:15:29 10° N
Sich 1 4.2 21:09:36 10° N 21:13:29 30° ENE 21:15:51 18° ESE
Helios 1B 4.5 21:09:17 10° NNE 21:13:37 86° ESE 21:17:55 10° SSW
MetOp-A 3.9 21:11:24 20° SSE 21:14:21 63° ENE 21:19:04 10° N
USA 276 1.4 21:12:42 10° W 21:14:53 53° SSW 21:15:14 46° SSE
SL-16 R/B 2.4 21:09:58 10° SSW 21:15:38 77° WNW 21:21:22 10° NNE
Cosmos 2263 4.2 21:10:13 10° NNW 21:15:56 82° ENE 21:20:00 20° SSE
MOS 1 Rocket 3.5 21:13:56 17° S 21:17:53 82° WSW 21:23:11 10° NNW
Cosmos 2056 Rocket 4.3 21:13:55 10° NNW 21:19:06 48° WSW 21:23:28 14° S
Lacrosse 5 3.1 21:15:33 10° WNW 21:20:01 31° SW 21:23:08 17° S
Cosmos 1536 3.1 21:16:28 10° N 21:20:15 51° ENE 21:22:15 25° SE
Ariane Rocket 3.4 21:16:49 14° S 21:21:06 61° W 21:26:09 10° NNW
Lacrosse 5 rocket 1.9 21:17:22 10° WSW 21:21:38 63° NNW 21:25:49 10° NE
Cosmos 1452 Rocket 3.7 21:18:08 10° NNW 21:23:23 65° ENE 21:26:45 22° SE
Cosmos 1408 Rocket 3.8 21:19:15 10° N 21:23:40 58° ENE 21:26:12 24° SSE
Cosmos 44 4.1 21:19:19 10° NW 21:23:50 40° WSW 21:26:45 19° S
Spot 1 3.9 21:20:37 10° NNE 21:24:41 70° ESE 21:27:37 18° S
Meteor 1-27 Rocket 4.4 21:22:18 21° SE 21:25:21 37° E 21:30:22 10° NNE
Okean 1 3.9 21:25:59 26° SE 21:27:28 36° E 21:31:03 10° NNE
Cosmos 1340 4.0 21:24:48 10° NNE 21:27:38 23° ENE 21:28:49 19° E
Cosmos 2221 3.5 21:23:52 10° SSW 21:28:01 45° WNW 21:32:12 10° N
Cosmos 2369 Rocket 2.4 21:23:01 10° NNW 21:28:35 65° WSW 21:32:23 20° S
Cosmos 2084 4.0 21:28:42 10° WNW 21:32:12 38° SW 21:33:53 24° S
FALCON 9 R/B 4.4 21:29:17 10° SW 21:35:44 34° S 21:54:21 10° ESE
USA 306 3.2 21:38:11 10° WNW 21:41:58 55° NNE 21:45:08 14° E
Cosmos 921 Rocket 3.7 21:38:42 10° SW 21:43:06 57° WNW 21:47:34 10° NNE
Okean 3 Rocket 4.2 21:40:59 10° NNW 21:45:17 51° W 21:48:05 20° SSW
GEOS 3 Rocket 3.8 21:41:04 10° NE 21:46:16 72° NW 21:51:21 10° SW
ATLAS 3B R/B 4.2 21:44:50 10° NW 21:51:30 32° WSW 21:57:03 14° SSW
Landsat 5 3.5 21:48:37 10° N 21:52:22 64° WNW 21:54:54 19° SSW
SL-8 R/B 4.0 21:50:08 10° SW 21:54:35 41° SSE 21:59:03 10° E
Cosmos 1500 Rocket 3.4 21:51:40 10° N 21:56:02 90° SSW 21:57:58 32° S
Terra 3.6 21:52:43 10° SSW 21:56:36 25° W 22:00:30 10° NW
Cosmos 1943 3.1 21:53:56 14° SSW 21:58:57 80° ESE 22:04:40 10° NNE
Cosmos 1733 2.9 21:55:38 10° N 21:59:10 71° E 22:00:07 44° SSE
ALOS 2 4.2 21:58:50 17° ESE 22:00:59 24° ENE 22:04:32 10° N
USA 234 3.9 21:54:49 10° E 22:01:11 56° NNE 22:07:33 10° WNW
Cosmos 1048 Rocket 4.0 21:59:01 14° SSW 22:03:24 82° WNW 22:08:34 10° NNE
H-2A R/B 3.1 22:02:30 29° ESE 22:04:06 44° ENE 22:08:06 10° N
Cosmos 1805 Rocket 3.5 22:00:33 10° N 22:04:57 88° WSW 22:06:48 35° S
Cosmos 494 Rocket 4.5 22:01:37 10° SW 22:06:39 59° WNW 22:11:44 10° NNE
Meteor 1-10 Rocket 4.4 22:02:23 16° SSW 22:07:01 71° WNW 22:12:42 10° N
Lacrosse 4 Rocket 3.4 22:04:18 10° NNW 22:07:29 22° NE 22:10:34 11° E
Cosmos 1151 Rocket 3.2 22:08:37 36° SSE 22:10:06 56° E 22:14:22 10° NNE
Meteor 2-9 Rocket 4.4 22:05:52 10° NNW 22:11:39 75° W 22:14:56 28° S
Cosmos 1666 Rocket 4.3 22:08:47 10° N 22:12:54 41° ENE 22:14:23 30° ESE
Cosmos 1092 Rocket 4.5 22:10:25 27° SE 22:13:24 46° E 22:19:23 10° NNE
Cosmos 1302 Rocket 4.0 22:09:34 10° NNW 22:14:47 73° ENE 22:17:13 32° SE
Meteor 1-11 Rocket 4.2 22:09:23 10° NNW 22:14:52 56° W 22:18:13 24° SSW
IRIDIUM 114 4.5 22:09:52 10° N 22:15:04 63° E 22:17:22 33° SSE
ISS -3.8 22:13:07 10° WNW 22:16:25 60° SSW 22:16:32 59° SSW
Cosmos 1633 Rocket 4.0 22:12:26 10° N 22:16:35 38° ENE 22:18:08 28° ESE
Meteor 2-10 4.3 22:11:14 10° NNW 22:16:50 70° W 22:19:41 29° S
ARIANE 5 R/B 2.5 22:16:04 38° SSE 22:17:43 90° ESE 22:22:05 10° NNW
Meteor 1-19 Rocket 4.3 22:14:06 24° S 22:17:50 89° E 22:23:40 10° NNE
Cosmos 1340 Rocket 2.7 22:17:22 42° S 22:18:37 78° E 22:22:38 10° NNE
USA 281 4.2 22:14:24 18° SSW 22:18:41 36° WSW 22:24:41 10° NW
USA 59 Rocket 0.6 22:16:36 10° NNW 22:20:13 49° NE 22:22:59 22° ESE
Cosmos 1331 Rocket 4.5 22:15:45 10° NNW 22:20:49 51° WSW 22:23:13 29° SSW
NOSS 2-1 (E) 4.1 22:17:27 10° NW 22:21:04 50° NE 22:23:49 22° ESE
MINOTAUR 4 R/B 3.4 22:19:11 10° NNE 22:22:11 88° ESE 22:22:21 78° S
BREEZE-M DEB (TANK) 4.5 22:19:05 10° WSW 22:23:19 86° S 22:43:19 10° E
IRIDIUM 103 4.3 22:19:00 10° N 22:24:15 75° E 22:26:30 35° SSE
H-2A R/B 4.2 22:22:51 10° NE 22:25:15 14° E 22:25:53 14° E
CZ-2C R/B 3.6 22:20:54 10° NNE 22:25:29 86° ESE 22:27:23 35° SSW
Cosmos 614 Rocket 4.5 22:27:45 34° SE 22:29:13 42° ESE 22:34:08 10° NE
Cosmos 1726 4.1 22:28:04 10° NW 22:30:00 15° W 22:31:07 13° WSW
Cosmos 1766 4.5 22:26:43 10° N 22:30:01 28° ENE 22:30:52 26° E
Cosmos 2195 Rocket 4.4 22:27:33 31° S 22:30:37 71° E 22:36:43 10° NNE
NOSS 2-1 (D) 3.7 22:29:02 10° NW 22:32:43 64° NE 22:34:55 29° ESE
Nadezhda 4 Rocket 4.1 22:30:39 24° SSW 22:34:36 73° W 22:40:51 10° N
Molniya-1 4.4 22:35:27 23° SW 22:38:12 83° SE 22:49:57 10° NE
Cosmos 1805 3.1 22:35:44 10° NNW 22:39:28 74° W 22:40:09 55° SSW
IRIDIUM 106 4.3 22:37:18 10° N 22:42:33 79° W 22:44:46 36° S
Sich 1 4.4 22:47:03 10° NNW 22:50:54 31° W 22:52:35 23° SW
Spot 2 4.2 22:50:57 43° SSE 22:52:26 83° ENE 22:57:16 10° NNW
Cosmos 1975 2.9 22:52:28 10° NNW 22:56:23 63° W 22:57:09 50° SSW
Lacrosse 5 rocket 3.4 22:56:47 10° WNW 23:00:35 30° N 23:04:17 10° NE
NOSS 3-3 (A) 4.5 22:59:41 31° SE 23:00:41 34° ESE 23:06:12 10° NE
Cosmos 1340 4.0 22:59:01 10° NW 23:01:49 24° W 23:02:14 24° WSW
Cosmos 1603 4.2 22:57:29 15° SW 23:02:07 58° NW 23:07:46 10° NNE
Cosmos 1626 1.6 23:04:41 86° NE 23:04:41 86° NE 23:07:53 10° N
Cosmos 1269 Rocket 4.4 23:04:35 38° SE 23:05:58 46° ESE 23:11:00 10° NNE
USA 267 3.3 23:00:33 10° ENE 23:06:59 57° SE 23:10:42 26° SSW
Cosmos 1674 3.5 23:07:50 33° E 23:07:50 33° E 23:10:57 10° NNE
NOSS 2-1 (C) 3.5 23:04:09 10° NW 23:07:57 71° SW 23:09:08 48° SSE
PSLV R/B 4.1 23:08:37 10° NNE 23:13:04 47° E 23:13:59 40° SE
Cosmos 2026 Rocket 4.2 23:12:23 29° SSW 23:15:45 68° WNW 23:22:02 10° N
USA 306 3.1 23:11:59 10° WNW 23:15:15 45° WSW 23:15:15 45° WSW
Cosmos 1833 Rocket 3.6 23:17:10 29° SE 23:18:28 32° ESE 23:23:22 10° NE
S3M 4.4 23:18:55 10° N 23:25:13 58° ENE 23:28:27 29° SE
NOSS 3-3 (C) 4.1 23:26:06 39° SSE 23:27:36 48° ESE 23:33:39 10° NE
SL-24 R/B 4.2 23:25:52 10° NNE 23:30:18 72° ESE 23:31:32 48° S
Cosmos 220 Rocket 4.1 23:30:05 43° SW 23:31:22 70° WNW 23:35:43 10° NNE
Cosmos 1515 Rocket 3.4 23:31:37 55° S 23:32:32 80° E 23:36:53 10° NNE
Cosmos 1328 Rocket 4.2 23:33:11 35° SW 23:34:32 48° WNW 23:38:45 10° N
GP-B 4.0 23:30:34 10° NNE 23:34:43 39° E 23:35:54 32° ESE
SL-8 R/B 3.5 23:31:58 10° WSW 23:36:44 76° S 23:41:31 10° E
ALOS 2 3.2 23:36:13 38° SW 23:37:06 44° W 23:41:19 10° NNW
Cosmos 1553 Rocket 4.0 23:31:05 10° NNW 23:37:09 70° W 23:39:39 37° SSW
H-2A R/B 4.1 23:38:30 20° WSW 23:39:16 21° W 23:42:29 10° NW
Cosmos 1470 Rocket 4.0 23:36:28 10° NNW 23:40:49 51° W 23:41:47 42° SW
Cosmos 1869 Rocket 4.0 23:37:26 10° N 23:41:43 53° ENE 23:42:58 39° SE
USA 234 3.2 23:38:50 17° SE 23:44:04 77° SW 23:50:39 10° WNW
Lacrosse 4 Rocket 1.3 23:42:05 10° NW 23:46:07 62° WSW 23:46:29 58° SSW
